TimeMST,TemperatureF,Dew PointF,Humidity,Sea Level PressureIn,VisibilityMPH,Wind Direction,Wind SpeedMPH,Gust SpeedMPH,PrecipitationIn,Events,Conditions,WindDirDegrees,DateUTC
12:53 AM,37.9,18.0,45,29.88,10.0,Calm,Calm,-,N/A,,Clear,0,2012-12-13 07:53:00
1:53 AM,37.0,17.1,44,29.88,10.0,SW,6.9,-,N/A,,Clear,230,2012-12-13 08:53:00
2:53 AM,41.0,16.0,36,29.87,10.0,SW,13.8,-,N/A,,Clear,230,2012-12-13 09:53:00
3:53 AM,30.9,16.0,54,29.91,10.0,West,5.8,-,N/A,,Clear,260,2012-12-13 10:53:00
4:15 AM,39.2,15.8,39,29.95,10.0,SW,13.8,-,N/A,,Clear,230,2012-12-13 11:15:00
4:53 AM,36.0,15.1,43,29.93,10.0,SSW,5.8,-,N/A,,Clear,200,2012-12-13 11:53:00
5:53 AM,28.9,14.0,54,29.98,10.0,Calm,Calm,-,N/A,,Clear,0,2012-12-13 12:53:00
6:53 AM,28.0,14.0,56,30.01,10.0,Calm,Calm,-,N/A,,Clear,0,2012-12-13 13:53:00
7:53 AM,28.9,14.0,54,30.04,10.0,North,4.6,-,N/A,,Clear,360,2012-12-13 14:53:00
8:53 AM,35.1,16.0,46,30.04,10.0,Calm,Calm,-,N/A,,Clear,0,2012-12-13 15:53:00
9:53 AM,39.9,17.1,40,30.02,10.0,Calm,Calm,-,N/A,,Clear,0,2012-12-13 16:53:00
10:53 AM,48.0,16.0,28,29.98,10.0,Calm,Calm,-,N/A,,Clear,0,2012-12-13 17:53:00
11:53 AM,54.0,15.1,22,29.96,10.0,SE,3.5,-,N/A,,Clear,140,2012-12-13 18:53:00
12:53 PM,55.9,12.0,18,29.91,10.0,Calm,Calm,-,N/A,,Clear,0,2012-12-13 19:53:00
1:53 PM,57.9,10.0,15,29.89,10.0,SSE,8.1,-,N/A,,Clear,160,2012-12-13 20:53:00
2:53 PM,59.0,10.0,14,29.87,10.0,SE,8.1,-,N/A,,Clear,130,2012-12-13 21:53:00
4:53 PM,50.0,8.1,18,29.90,10.0,East,5.8,-,N/A,,Clear,80,2012-12-13 23:53:00
6:53 PM,41.0,9.0,27,29.94,10.0,ESE,8.1,-,N/A,,Clear,120,2012-12-14 01:53:00
7:53 PM,42.1,10.0,27,29.94,10.0,SE,6.9,-,N/A,,Clear,130,2012-12-14 02:53:00
8:53 PM,42.1,10.9,28,29.91,10.0,East,4.6,-,N/A,,Clear,100,2012-12-14 03:53:00
9:53 PM,32.0,9.0,38,29.94,10.0,WNW,12.7,-,N/A,,Clear,290,2012-12-14 04:53:00
11:53 PM,28.0,16.0,61,29.88,10.0,WSW,6.9,-,N/A,,Clear,240,2012-12-14 06:53:00